{"data":{"norad_id":57111,"epoch":"2026-05-25T04:34:35.961600Z","epoch_age_seconds":55615,"freshness":"FRESH","line1":"1 57111U 23090L   26145.19069400  .00000653  00000+0  33260-4 0  9997","line2":"2 57111  43.0019 209.3928 0001330 272.2822  87.7877 15.27578346162033","mean_motion":15.27578346,"eccentricity":0.000133,"inclination_deg":43.0019,"raan_deg":209.3928,"arg_perigee_deg":272.2822,"mean_anomaly_deg":87.7877,"bstar":3.326e-5,"rev_number":16203,"period_min":94.266850781871,"perigee_km":482.14151030567,"apogee_km":483.96658712462,"semimajor_km":6861.1910487151,"source":"CELESTRAK","updated_at":"2026-05-25T13:38:18.241262Z"}}